CW8053 Genova IT current weather conditions

sailwx.info

Wind from 332 at 1 knots

Air temperature 26.1° C
Dewpoint 16.9° C

Last reported at 2020-Jul-07 08:04 UTC.
Time now 2020-Jul-07 09:03 UTC

Location: N 44°25' E 008°59'.
View on Google Maps.

See reports from other nearby stations

  
Tides and Currents Weather Stations Pressure Air Temp Water Temp Dewpoint Dewpoint Depression Visibility Wind Speed Wind Dir Waves Ship Positions
date/time (UTC)wind fromknots sea level pressurealtimeterstation pressurevisibilityair tempwater tempwave heightnotes
2020-Jul-07 08:04 332 1 26.1
2020-Jul-07 07:59 304 1 26.1
2020-Jul-07 07:54 334 1 25.6
2020-Jul-07 07:49 342 1 25.0
2020-Jul-07 07:44 284 1 25.0
2020-Jul-07 07:39 318 1 24.4
2020-Jul-07 07:34 318 1 24.4
2020-Jul-07 07:29 318 2 24.4
2020-Jul-07 07:24 318 2 23.9
2020-Jul-07 07:19 299 2 23.9
2020-Jul-07 07:14 295 1 23.9
2020-Jul-07 07:08 003 1 23.3
2020-Jul-07 07:04 318 1 23.3
2020-Jul-07 06:59 305 1 23.3
2020-Jul-07 06:54 328 2 23.3
2020-Jul-07 06:49 318 2 22.8
2020-Jul-07 06:44 285 2 22.8
2020-Jul-07 06:39 318 2 22.8
2020-Jul-07 06:34 001 2 22.2
2020-Jul-07 06:29 328 2 22.2
2020-Jul-07 06:24 303 2 22.2
2020-Jul-07 06:19 302 2 22.2
2020-Jul-07 06:14 328 2 22.2
2020-Jul-07 06:09 307 2 22.2
2020-Jul-07 06:04 318 3 22.2
2020-Jul-07 05:59 304 4 22.2
2020-Jul-07 05:54 001 3 21.7
2020-Jul-07 05:49 006 2 21.7
2020-Jul-07 05:44 287 2 21.7
2020-Jul-07 05:39 014 2 21.7
2020-Jul-07 05:34 311 1 21.7
2020-Jul-07 05:29 318 2 21.7
2020-Jul-07 05:24 339 2 21.7
2020-Jul-07 05:19 338 1 21.1
2020-Jul-07 05:14 340 1 21.1
2020-Jul-07 05:09 287 1 21.1
2020-Jul-07 05:04 318 1 21.1
2020-Jul-07 04:59 300 0 21.1
2020-Jul-07 04:54 328 0 21.7
2020-Jul-07 04:49 307 0 21.7
2020-Jul-07 04:45 332 0 21.7
2020-Jul-07 04:39 303 0 21.7
2020-Jul-07 04:34 328 0 21.7
2020-Jul-07 04:29 277 0 21.7
2020-Jul-07 04:24 284 1 22.2
2020-Jul-07 04:19 282 1 22.2
2020-Jul-07 04:14 295 1 22.2
2020-Jul-07 04:09 273 1 22.8
2020-Jul-07 04:04 311 1 22.8
2020-Jul-07 03:59 294 1 22.8
2020-Jul-07 03:54 293 2 22.8
2020-Jul-07 03:49 347 2 23.3
2020-Jul-07 03:44 318 3 23.3
2020-Jul-07 03:39 328 3 23.3
2020-Jul-07 03:34 328 3 23.3
2020-Jul-07 03:29 323 3 23.3
2020-Jul-07 03:24 347 4 23.3
2020-Jul-07 03:19 345 4 23.3
2020-Jul-07 03:14 328 4 23.3
2020-Jul-07 03:09 328 4 23.3
2020-Jul-07 03:04 342 4 23.9
2020-Jul-07 02:59 003 3 23.9
2020-Jul-07 02:54 323 3 23.3
2020-Jul-07 02:49 311 3 23.3
2020-Jul-07 02:44 318 3 23.3
2020-Jul-07 02:39 323 3 23.3
2020-Jul-07 02:34 355 3 23.9
2020-Jul-07 02:29 323 2 23.9
2020-Jul-07 02:24 009 3 23.3
2020-Jul-07 02:19 328 3 23.3
2020-Jul-07 02:14 002 2 23.9
2020-Jul-07 02:09 357 1 23.9
2020-Jul-07 02:04 323 2 23.9
2020-Jul-07 01:59 349 3 23.9
2020-Jul-07 01:54 358 3 23.9
2020-Jul-07 01:49 318 2 23.9
2020-Jul-07 01:44 299 2 23.9
2020-Jul-07 01:39 342 2 23.9
2020-Jul-07 01:34 282 2 23.3
2020-Jul-07 01:29 350 2 23.3
2020-Jul-07 01:24 309 1 23.3
2020-Jul-07 01:19 306 1 23.3
2020-Jul-07 01:14 313 2 22.8
2020-Jul-07 01:09 345 1 22.8
2020-Jul-07 01:04 301 1 22.8
2020-Jul-07 00:59 318 1 22.2
2020-Jul-07 00:54 309 1 22.2
2020-Jul-07 00:49 357 1 21.7
2020-Jul-07 00:44 282 0 21.7
2020-Jul-07 00:39 289 21.7
2020-Jul-07 00:34 289 21.7
2020-Jul-07 00:29 289 21.7
2020-Jul-07 00:24 201 21.7
2020-Jul-07 00:19 201 21.7
2020-Jul-07 00:14 201 21.7
2020-Jul-07 00:09 201 0 21.7
2020-Jul-07 00:04 201 0 21.7
2020-Jul-06 23:59 201 0 21.7
2020-Jul-06 23:54 194 0 21.7
2020-Jul-06 23:49 194 0 21.7
2020-Jul-06 23:44 194 21.7
2020-Jul-06 23:39 194 21.7
2020-Jul-06 23:34 194 21.7
2020-Jul-06 23:29 194 21.7
2020-Jul-06 23:24 194 21.7
2020-Jul-06 23:19 194 21.7
2020-Jul-06 23:14 194 21.7
2020-Jul-06 23:09 194 21.7
2020-Jul-06 23:04 194 21.7
2020-Jul-06 22:59 194 21.7
2020-Jul-06 22:54 194 21.7
2020-Jul-06 22:49 194 21.7
2020-Jul-06 22:44 194 21.7
2020-Jul-06 22:39 194 21.7
2020-Jul-06 22:34 194 21.7
2020-Jul-06 22:30 194 21.7
2020-Jul-06 22:24 194 21.7
2020-Jul-06 22:19 194 21.7
2020-Jul-06 22:14 194 21.7
2020-Jul-06 22:09 194 21.7
2020-Jul-06 22:04 194 21.7
2020-Jul-06 21:59 194 21.7
2020-Jul-06 21:54 194 21.7
2020-Jul-06 21:49 194 21.7
2020-Jul-06 21:45 194 21.7
2020-Jul-06 21:39 194 22.2
2020-Jul-06 21:34 194 22.2
2020-Jul-06 21:29 194 22.2
2020-Jul-06 21:24 194 22.2
2020-Jul-06 21:19 194 22.2
2020-Jul-06 21:14 194 22.2
2020-Jul-06 21:09 194 22.2
2020-Jul-06 21:04 194 22.8
2020-Jul-06 20:59 194 22.8
2020-Jul-06 20:54 194 22.8
2020-Jul-06 20:49 194 22.8
2020-Jul-06 20:44 194 22.8
2020-Jul-06 20:39 194 22.8
2020-Jul-06 20:34 194 22.8
2020-Jul-06 20:29 194 22.8
2020-Jul-06 20:24 194 23.3
2020-Jul-06 20:20 194 23.3
2020-Jul-06 20:14 194 23.3
2020-Jul-06 20:09 194 23.3
2020-Jul-06 20:04 194 23.3
2020-Jul-06 19:59 194 23.3
2020-Jul-06 19:54 194 23.9
2020-Jul-06 19:49 194 23.9
2020-Jul-06 19:44 194 23.9
2020-Jul-06 19:39 194 23.9
2020-Jul-06 19:34 194 24.4
2020-Jul-06 19:29 194 24.4
2020-Jul-06 19:24 194 24.4
2020-Jul-06 19:19 194 0 24.4
2020-Jul-06 19:14 194 1 24.4
2020-Jul-06 19:09 194 0 24.4
2020-Jul-06 19:04 194 1 25.0
2020-Jul-06 18:59 194 1 25.0
2020-Jul-06 18:54 194 0 25.0
2020-Jul-06 18:49 192 0 25.6
2020-Jul-06 18:44 192 0 25.6
2020-Jul-06 18:39 192 0 26.1
2020-Jul-06 18:34 192 0 26.1
2020-Jul-06 18:29 192 1 26.1
2020-Jul-06 18:24 192 1 26.1
2020-Jul-06 18:19 192 1 26.1
2020-Jul-06 18:14 192 1 26.1
2020-Jul-06 18:09 192 0 26.7
2020-Jul-06 18:04 192 0 26.1
2020-Jul-06 17:59 192 0 26.7
2020-Jul-06 17:54 192 0 26.1
2020-Jul-06 17:49 192 1 26.7
2020-Jul-06 17:44 192 2 26.7
2020-Jul-06 17:39 192 2 27.2
2020-Jul-06 17:34 184 1 27.2
2020-Jul-06 17:29 176 2 27.8
2020-Jul-06 17:24 176 2 27.8
2020-Jul-06 17:19 195 1 27.8
2020-Jul-06 17:14 190 1 28.3
2020-Jul-06 17:09 190 2 28.3
2020-Jul-06 17:04 190 2 28.3
2020-Jul-06 16:59 185 1 28.3
2020-Jul-06 16:54 159 0 28.3
2020-Jul-06 16:49 159 0 28.3
2020-Jul-06 16:44 125 1 28.3
2020-Jul-06 16:39 126 2 27.8
2020-Jul-06 16:35 157 2 27.8
2020-Jul-06 16:29 178 2 28.3
2020-Jul-06 16:24 178 1 28.3
2020-Jul-06 16:19 209 2 27.8
2020-Jul-06 16:14 209 2 27.8
2020-Jul-06 16:09 182 2 27.8
2020-Jul-06 16:04 182 3 27.8
2020-Jul-06 15:59 190 3 27.8
2020-Jul-06 15:54 188 3 27.8
2020-Jul-06 15:50 195 3 27.8
2020-Jul-06 15:44 197 4 27.8
2020-Jul-06 15:39 185 3 27.8
2020-Jul-06 15:34 192 2 28.3
2020-Jul-06 15:29 220 3 28.3
2020-Jul-06 15:24 188 4 28.3
2020-Jul-06 15:19 195 3 28.3
2020-Jul-06 15:14 226 2 28.3
2020-Jul-06 15:09 188 2 28.3
2020-Jul-06 15:04 174 2 28.3
2020-Jul-06 14:59 136 2 28.3
2020-Jul-06 14:54 166 2 28.3
2020-Jul-06 14:49 179 1 28.3
2020-Jul-06 14:44 211 1 28.3
2020-Jul-06 14:39 172 2 27.8
2020-Jul-06 14:34 166 3 27.8
2020-Jul-06 14:29 169 3 27.8
2020-Jul-06 14:24 178 2 28.3
2020-Jul-06 14:19 172 3 28.3
2020-Jul-06 14:14 204 3 28.3
2020-Jul-06 14:09 186 4 28.3
2020-Jul-06 14:04 159 4 27.8
2020-Jul-06 13:59 188 4 28.3
2020-Jul-06 13:54 184 3 28.3
2020-Jul-06 13:49 177 3 28.3
2020-Jul-06 13:44 178 4 28.3
2020-Jul-06 13:39 203 4 28.3
2020-Jul-06 13:34 180 3 28.3
2020-Jul-06 13:29 169 2 28.3
2020-Jul-06 13:24 189 3 28.3
2020-Jul-06 13:19 213 4 28.3
2020-Jul-06 13:14 205 3 28.3
2020-Jul-06 13:09 168 3 28.3
2020-Jul-06 13:04 154 2 28.3
2020-Jul-06 12:59 159 1 28.3
2020-Jul-06 12:54 156 2 28.3
2020-Jul-06 12:49 223 2 28.3
2020-Jul-06 12:44 179 3 28.3
2020-Jul-06 12:39 175 3 27.8
2020-Jul-06 12:34 206 3 27.8
2020-Jul-06 12:29 129 3 27.8
2020-Jul-06 12:24 182 2 27.8
2020-Jul-06 12:19 192 2 27.8
2020-Jul-06 12:15 174 2 27.8
2020-Jul-06 12:09 175 2 27.2
2020-Jul-06 12:04 203 2 27.2
2020-Jul-06 11:59 236 2 27.2
2020-Jul-06 11:54 113 3 27.2
2020-Jul-06 11:49 195 3 27.2
2020-Jul-06 11:44 177 3 27.2
2020-Jul-06 11:39 183 3 27.2
2020-Jul-06 11:34 188 3 27.2
2020-Jul-06 11:29 199 3 27.2
2020-Jul-06 11:24 201 3 27.2
2020-Jul-06 11:19 145 3 27.2
2020-Jul-06 11:14 149 2 27.2
2020-Jul-06 11:09 194 2 27.2
2020-Jul-06 11:04 178 2 26.7
2020-Jul-06 10:59 204 2 26.7
2020-Jul-06 10:54 128 3 26.7
2020-Jul-06 10:49 211 4 26.1
2020-Jul-06 10:44 178 4 26.1
2020-Jul-06 10:39 178 4 26.1
2020-Jul-06 10:34 161 3 26.7
2020-Jul-06 10:29 211 2 26.7
2020-Jul-06 10:24 230 3 26.7
2020-Jul-06 10:19 184 3 26.7
2020-Jul-06 10:14 210 3 27.2
2020-Jul-06 10:09 174 2 27.2
2020-Jul-06 10:04 190 1 27.2
2020-Jul-06 09:59 182 1 27.2
2020-Jul-06 09:54 155 1 27.2
2020-Jul-06 09:49 183 0 27.2
2020-Jul-06 09:44 104 1 27.2
2020-Jul-06 09:39 117 2 27.2
2020-Jul-06 09:34 194 3 26.7
2020-Jul-06 09:29 191 3 26.7
2020-Jul-06 09:24 197 4 27.2
2020-Jul-06 09:19 206 3 27.2
2020-Jul-06 09:14 180 2 27.2
2020-Jul-06 09:09 220 2 27.2
2020-Jul-06 09:04 188 1 26.7
2020-Jul-06 08:59 199 1 26.7
2020-Jul-06 08:54 197 1 26.7
2020-Jul-06 08:49 205 0 26.1
2020-Jul-06 08:44 205 0 26.1
2020-Jul-06 08:39 128 0 26.1
2020-Jul-06 08:34 126 0 26.1
2020-Jul-06 08:29 127 1 25.6
2020-Jul-06 08:24 112 1 25.6
2020-Jul-06 08:19 170 1 25.6
2020-Jul-06 08:14 157 1 26.1
2020-Jul-06 08:09 176 1 25.6
2020-Jul-06 08:04 192 2 25.6
2020-Jul-06 07:59 192 1 25.6
2020-Jul-06 07:54 187 1 25.6
2020-Jul-06 07:49 176 0 25.0
2020-Jul-06 07:44 175 25.0
2020-Jul-06 07:39 175 24.4
2020-Jul-06 07:34 175 24.4
2020-Jul-06 07:29 175 23.9
2020-Jul-06 07:24 175 23.9
2020-Jul-06 07:19 175 23.3
2020-Jul-06 07:14 175 23.3
2020-Jul-06 07:09 175 22.8
2020-Jul-06 07:04 175 22.8
2020-Jul-06 06:59 175 22.2
2020-Jul-06 06:54 175 22.2
2020-Jul-06 06:49 175 21.7
2020-Jul-06 06:44 175 21.7
2020-Jul-06 06:39 175 21.7
2020-Jul-06 06:34 175 21.7
2020-Jul-06 06:29 175 21.7
2020-Jul-06 06:24 175 21.1
2020-Jul-06 06:19 175 21.1
2020-Jul-06 06:14 175 21.1
2020-Jul-06 06:09 175 21.7
2020-Jul-06 06:04 175 21.7
2020-Jul-06 05:59 175 21.1
2020-Jul-06 05:54 175 21.1
2020-Jul-06 05:49 175 21.1
2020-Jul-06 05:44 175 21.1
2020-Jul-06 05:39 175 21.1
2020-Jul-06 05:34 175 21.1
2020-Jul-06 05:29 175 21.1
2020-Jul-06 05:24 175 21.1
2020-Jul-06 05:19 175 20.6
2020-Jul-06 05:14 175 20.6
2020-Jul-06 05:09 175 20.6
2020-Jul-06 05:04 175 20.6
2020-Jul-06 04:59 175 20.6
2020-Jul-06 04:54 175 20.6
2020-Jul-06 04:49 175 20.6
2020-Jul-06 04:44 175 20.6
2020-Jul-06 04:39 175 20.6
2020-Jul-06 04:34 175 20.6
2020-Jul-06 04:29 175 20.6
2020-Jul-06 04:24 175 20.6
2020-Jul-06 04:19 175 20.6
2020-Jul-06 04:14 175 20.6
2020-Jul-06 04:09 175 20.6
2020-Jul-06 04:04 175 20.6
2020-Jul-06 03:59 175 20.6
2020-Jul-06 03:54 175 20.6
2020-Jul-06 03:49 175 20.6
2020-Jul-06 03:44 175 20.6
2020-Jul-06 03:39 175 20.6
2020-Jul-06 03:34 175 20.6
2020-Jul-06 03:29 175 20.6
2020-Jul-06 03:24 175 20.6
2020-Jul-06 03:19 175 20.6
2020-Jul-06 03:14 175 20.6
2020-Jul-06 03:09 175 20.6
2020-Jul-06 03:04 175 20.6
2020-Jul-06 02:59 175 21.1
2020-Jul-06 02:54 175 21.1
2020-Jul-06 02:49 175 21.1
2020-Jul-06 02:44 175 21.1
2020-Jul-06 02:39 175 21.1
2020-Jul-06 02:34 175 21.1
2020-Jul-06 02:29 175 21.1
2020-Jul-06 02:24 175 21.1
2020-Jul-06 02:19 175 21.1
2020-Jul-06 02:14 175 21.1
2020-Jul-06 02:09 175 21.1
2020-Jul-06 02:04 175 21.1
2020-Jul-06 01:59 175 21.1
2020-Jul-06 01:54 175 21.7
2020-Jul-06 01:49 175 21.7
2020-Jul-06 01:44 175 21.7
2020-Jul-06 01:39 175 21.7
2020-Jul-06 01:34 175 21.7
2020-Jul-06 01:29 175 21.7
2020-Jul-06 01:24 175 21.7
2020-Jul-06 01:19 175 21.7
2020-Jul-06 01:14 175 21.7
2020-Jul-06 01:09 175 21.7
2020-Jul-06 01:04 175 21.7
2020-Jul-06 00:59 175 21.7
2020-Jul-06 00:54 175 21.7
2020-Jul-06 00:49 175 21.7
2020-Jul-06 00:44 175 21.7
2020-Jul-06 00:39 175 21.7
2020-Jul-06 00:34 175 21.7
2020-Jul-06 00:29 175 21.7
2020-Jul-06 00:24 175 21.7
2020-Jul-06 00:19 175 21.7
2020-Jul-06 00:14 175 21.7
2020-Jul-06 00:09 175 21.7
2020-Jul-06 00:04 175 21.7
2020-Jul-05 23:59 175 21.7
2020-Jul-05 23:54 175 21.7
2020-Jul-05 23:49 175 21.7
2020-Jul-05 23:44 175 21.7
2020-Jul-05 23:39 175 21.7
2020-Jul-05 23:34 175 21.7
2020-Jul-05 23:29 175 21.7
2020-Jul-05 23:24 175 22.2
2020-Jul-05 23:19 175 22.2
2020-Jul-05 23:14 175 22.2
2020-Jul-05 23:09 175 22.2
2020-Jul-05 23:04 175 22.2
2020-Jul-05 22:59 175 22.2
2020-Jul-05 22:54 175 22.2
2020-Jul-05 22:49 175 22.2
2020-Jul-05 22:44 175 22.2
2020-Jul-05 22:39 175 22.2
2020-Jul-05 22:34 175 22.2
2020-Jul-05 22:29 175 22.2
2020-Jul-05 22:24 175 22.2
2020-Jul-05 22:19 175 22.2
2020-Jul-05 22:14 175 22.2
2020-Jul-05 22:09 175 22.2
2020-Jul-05 22:04 175 22.2
2020-Jul-05 21:59 175 22.2
2020-Jul-05 21:54 175 22.2
2020-Jul-05 21:49 175 22.8
2020-Jul-05 21:44 175 22.8
2020-Jul-05 21:39 175 22.8
2020-Jul-05 21:34 175 22.8
2020-Jul-05 21:29 175 22.8
2020-Jul-05 21:24 175 22.8
2020-Jul-05 21:19 175 22.8
2020-Jul-05 21:14 175 22.8
2020-Jul-05 21:09 175 22.8
2020-Jul-05 21:04 175 22.8
2020-Jul-05 20:59 175 22.8
2020-Jul-05 20:54 175 22.8
2020-Jul-05 20:49 175 23.3
2020-Jul-05 20:44 175 23.3
2020-Jul-05 20:39 175 23.3
2020-Jul-05 20:34 175 23.3
2020-Jul-05 20:29 175 23.3
2020-Jul-05 20:24 175 23.3
2020-Jul-05 20:19 175 23.3
2020-Jul-05 20:14 175 23.3
2020-Jul-05 20:09 175 23.3
2020-Jul-05 20:04 175 23.3
2020-Jul-05 19:59 175 23.3
2020-Jul-05 19:54 175 23.9
2020-Jul-05 19:49 175 23.9
2020-Jul-05 19:44 175 23.9
2020-Jul-05 19:39 175 24.4
2020-Jul-05 19:34 175 24.4
2020-Jul-05 19:29 175 25.0
2020-Jul-05 19:24 175 25.6
2020-Jul-05 19:19 175 25.6
2020-Jul-05 19:14 175 25.6
2020-Jul-05 19:09 175 26.1
2020-Jul-05 19:04 175 26.7
2020-Jul-05 18:59 175 26.7
2020-Jul-05 18:54 175 27.2
2020-Jul-05 18:49 175 27.8
2020-Jul-05 18:44 175 28.3
2020-Jul-05 18:39 175 28.3
2020-Jul-05 18:34 175 28.9
2020-Jul-05 18:29 175 28.9
2020-Jul-05 18:24 175 28.9
2020-Jul-05 18:19 175 28.9
2020-Jul-05 18:14 175 28.9
2020-Jul-05 18:09 175 28.9
2020-Jul-05 18:04 175 28.9
2020-Jul-05 17:59 175 28.9
2020-Jul-05 17:54 175 28.9
2020-Jul-05 17:49 175 28.9
2020-Jul-05 17:44 175 28.3
2020-Jul-05 17:39 175 28.3
2020-Jul-05 17:34 175 0 28.3
2020-Jul-05 17:29 175 0 27.8
2020-Jul-05 17:24 175 0 27.8
2020-Jul-05 17:19 175 0 27.8
2020-Jul-05 17:14 175 1 27.8
2020-Jul-05 17:09 175 1 27.8
2020-Jul-05 17:04 175 0 28.3
2020-Jul-05 16:59 174 0 27.8
2020-Jul-05 16:54 174 1 27.8
2020-Jul-05 16:49 174 2 27.8
2020-Jul-05 16:44 174 2 27.8
2020-Jul-05 16:39 169 2 27.8
2020-Jul-05 16:34 203 3 27.8
2020-Jul-05 16:29 201 3 27.8
2020-Jul-05 16:24 190 3 28.3
2020-Jul-05 16:19 205 3 28.3
2020-Jul-05 16:14 199 2 28.3
2020-Jul-05 16:09 184 2 28.9
2020-Jul-05 16:04 193 2 28.9
2020-Jul-05 15:59 195 2 28.9
2020-Jul-05 15:54 204 2 28.9
2020-Jul-05 15:49 207 2 28.9
2020-Jul-05 15:44 178 2 28.9
2020-Jul-05 15:39 190 2 28.9
2020-Jul-05 15:34 159 2 28.3
2020-Jul-05 15:29 194 2 28.9
2020-Jul-05 15:24 184 1 28.9
2020-Jul-05 15:19 108 2 28.9
2020-Jul-05 15:14 185 2 28.9
2020-Jul-05 15:09 207 2 28.9
2020-Jul-05 15:04 203 2 28.9
2020-Jul-05 14:59 207 2 28.3
2020-Jul-05 14:54 212 2 28.3
2020-Jul-05 14:49 160 2 28.3
2020-Jul-05 14:44 208 2 28.3
2020-Jul-05 14:39 207 2 28.3
2020-Jul-05 14:34 202 2 28.3
2020-Jul-05 14:29 153 2 28.3
2020-Jul-05 14:24 223 3 27.8
2020-Jul-05 14:19 182 3 27.8
2020-Jul-05 14:14 180 2 27.8
2020-Jul-05 14:09 171 2 27.8
2020-Jul-05 14:04 178 3 27.8
2020-Jul-05 13:59 194 3 27.8
2020-Jul-05 13:54 172 2 27.8
2020-Jul-05 13:49 164 2 27.8
2020-Jul-05 13:44 176 3 27.8
2020-Jul-05 13:39 174 3 27.8
2020-Jul-05 13:34 159 4 27.2
2020-Jul-05 13:29 159 3 27.2
2020-Jul-05 13:24 180 3 27.8
2020-Jul-05 13:19 159 3 27.8
2020-Jul-05 13:14 172 2 27.8
2020-Jul-05 13:09 217 3 27.8
2020-Jul-05 13:04 199 3 27.8
2020-Jul-05 12:59 174 3 27.8
2020-Jul-05 12:54 198 3 27.8
2020-Jul-05 12:49 207 2 27.8
2020-Jul-05 12:44 215 2 27.2
2020-Jul-05 12:39 168 3 27.2
2020-Jul-05 12:34 173 2 27.8
2020-Jul-05 12:28 124 1 27.8
2020-Jul-05 12:24 165 1 27.8
2020-Jul-05 12:19 145 2 27.8
2020-Jul-05 12:14 236 3 27.8
2020-Jul-05 12:09 177 4 27.2
2020-Jul-05 12:04 186 4 27.2
2020-Jul-05 11:59 186 3 27.8
2020-Jul-05 11:54 211 3 27.2
2020-Jul-05 11:49 190 4 27.2
2020-Jul-05 11:44 192 4 27.2
2020-Jul-05 11:39 195 3 27.2
2020-Jul-05 11:34 209 2 26.7
2020-Jul-05 11:29 242 3 26.7
2020-Jul-05 11:24 156 3 26.7
2020-Jul-05 11:19 170 3 26.7
2020-Jul-05 11:14 199 2 26.7
2020-Jul-05 11:09 176 1 26.7
2020-Jul-05 11:04 201 1 26.7
2020-Jul-05 10:59 207 2 26.7
2020-Jul-05 10:54 192 3 26.1
2020-Jul-05 10:49 240 3 26.1
2020-Jul-05 10:44 224 4 26.1
2020-Jul-05 10:39 175 5 25.6
2020-Jul-05 10:34 200 5 25.6
2020-Jul-05 10:29 190 5 25.6
2020-Jul-05 10:24 189 5 26.1
2020-Jul-05 10:19 192 4 26.1
2020-Jul-05 10:14 210 3 26.1
2020-Jul-05 10:09 222 4 25.6
2020-Jul-05 10:04 220 3 26.1
2020-Jul-05 09:59 186 3 26.1
2020-Jul-05 09:54 174 4 26.1
2020-Jul-05 09:49 212 4 26.1
2020-Jul-05 09:44 198 2 26.1
2020-Jul-05 09:39 200 2 26.1
2020-Jul-05 09:34 207 3 25.6
2020-Jul-05 09:29 186 2 25.6
2020-Jul-05 09:24 213 1 25.6
2020-Jul-05 09:19 195 1 25.6
2020-Jul-05 09:14 195 1 25.6
2020-Jul-05 09:09 224 1 25.6
2020-Jul-05 09:04 168 2 25.6